Lid_Strength_Index
12 14 15 14 13 13 14 15 15 13 11 13 13 13 12 11 11 10 10 10 9 9 6 5 4 4 4 6 5 4 3 2 1 2 2 2 2 1 1 0 -0 -0 -0 -0
13 15 12 11 12 12 13 15 15 13 11 13 13 13 12 11 11 10 10 9 9 9 8 7 5 4 3 3 6 6 5 4 1 1 4 3 3 3 2 1 0 -0 -0 -0
15 12 10 11 12 13 14 14 14 13 12 12 14 15 13 11 10 9 9 9 9 8 8 7 5 3 3 4 3 5 4 5 5 5 6 6 5 4 3 2 1 1 -0 -0
13 11 11 13 13 12 15 12 12 13 14 17 13 18 15 13 12 10 9 9 9 9 8 7 6 4 3 3 2 2 4 5 6 6 7 6 5 5 5 4 3 2 2 1
13 13 13 13 12 11 13 11 12 13 15 18 16 19 16 14 13 11 11 10 9 8 8 8 7 5 3 3 3 3 3 4 5 6 6 6 6 5 3 4 3 3 3 2
13 11 12 12 11 11 11 13 15 16 17 20 17 17 17 15 13 12 10 9 8 8 7 7 7 6 4 3 3 3 4 4 3 4 4 5 5 4 4 3 2 2 2 1
14 13 12 11 13 12 14 16 20 20 21 19 15 18 16 13 11 11 10 9 8 8 7 6 6 6 5 3 3 3 4 4 3 3 3 3 3 2 2 2 2 2 2 2
17 17 13 11 13 13 15 16 19 21 22 19 15 19 16 12 10 9 9 9 8 8 7 6 5 6 6 3 3 3 4 4 3 3 3 2 2 2 2 2 2 2 2 1
18 17 11 11 11 12 15 17 15 18 18 20 18 16 12 10 10 9 8 8 8 8 7 7 6 5 5 4 3 3 3 4 3 3 2 2 2 2 2 2 1 2 1 1
14 17 12 11 10 11 12 11 15 16 20 22 19 17 16 12 12 9 9 8 8 7 7 7 7 6 6 5 5 3 3 3 2 2 2 2 2 2 2 2 2 2 1 1
12 14 14 12 13 13 13 13 13 13 15 20 21 18 13 13 11 10 8 8 7 7 7 7 7 6 6 6 5 5 4 4 3 3 3 2 2 2 2 2 2 1 1 1
11 13 15 14 12 10 11 12 12 17 18 17 18 17 10 11 9 8 8 7 6 6 6 6 6 5 5 5 6 5 5 5 4 3 3 3 3 2 2 2 1 1 1 1
12 15 18 16 14 11 12 11 12 13 14 17 19 17 9 8 8 8 8 7 7 6 6 6 6 6 6 5 5 5 5 5 5 4 3 3 3 3 3 2 1 2 1 1
10 14 15 18 15 13 14 12 12 13 17 17 16 14 11 10 9 8 8 7 7 6 5 6 6 6 5 4 4 4 4 4 4 5 4 4 3 3 2 2 2 1 1 1
11 16 14 13 13 13 13 13 12 14 14 16 14 14 11 10 10 9 7 7 7 6 6 6 6 6 5 5 4 3 4 3 4 4 5 5 3 3 2 2 2 2 2 2
13 17 15 15 13 13 14 12 12 12 12 13 13 14 10 9 8 8 8 7 7 7 6 5 6 6 5 5 5 5 5 4 4 4 4 4 4 3 3 3 2 2 2 2
15 16 17 18 15 14 16 13 12 12 11 12 16 12 9 10 9 8 7 7 7 7 7 7 6 7 7 7 6 6 5 5 5 4 4 3 3 3 3 3 3 3 2 2
16 17 17 18 15 20 14 10 10 12 11 10 11 10 9 8 8 8 7 7 7 7 8 8 7 7 7 7 7 7 7 6 6 6 5 4 4 3 3 3 3 3 3 3
13 14 16 17 18 15 13 12 12 12 13 10 10 9 8 8 9 9 6 6 7 7 7 7 7 7 7 7 6 7 7 7 7 7 7 6 4 4 4 4 4 3 3 3
11 10 14 16 19 20 14 10 8 9 15 9 8 9 10 9 12 10 8 7 7 6 7 7 7 6 7 7 6 7 7 7 7 7 6 5 5 5 5 4 4 4 4 3
14 13 16 16 17 15 10 9 8 16 15 10 9 10 10 10 9 8 7 7 7 7 7 6 6 7 6 6 6 7 7 8 7 6 6 6 6 5 5 5 4 4 4 4
14 15 17 15 17 18 9 9 13 12 10 9 9 9 9 8 8 7 7 8 9 8 7 7 8 8 7 7 7 8 8 7 7 7 7 7 7 6 6 6 5 4 4 4
15 12 14 13 15 11 10 10 9 9 9 9 8 8 7 8 8 9 10 10 8 8 9 8 9 9 8 8 9 10 9 7 7 7 8 7 7 6 6 6 6 6 5 5
10 10 12 12 11 11 10 9 9 8 8 7 7 7 8 10 10 10 9 9 8 9 10 9 9 10 10 9 8 8 8 8 9 9 9 8 8 8 7 7 7 7 6 6
11 11 13 13 12 11 10 9 9 8 7 7 7 8 8 9 10 11 11 11 10 10 10 9 11 11 10 10 9 9 9 9 9 8 8 8 8 8 7 7 7 7 6 6
11 12 15 14 11 11 11 9 8 9 8 7 8 8 8 9 11 11 11 10 9 10 10 11 11 11 11 10 10 9 9 9 9 9 9 9 9 9 9 8 8 8 8 8